Location: Mohawk View
(42.7837°N, 73.7885°W)
Time: 07:51:16
(UTC+00:00)

SPOT 5 - Pass Details

Date: 17 June 2021
Orbit: 622 x 815 km, 98.2° (Epoch: 28 July)

Event Time Altitude Azimuth Distance (km) Brightness Sun altitude
Exits shadow 03:29:58 19° 221° (SW) 1,810 4.7 -20.9°
Maximum altitude 03:32:36 28° 264° (W) 1,419 4.5 -21.1°
Drops below altitude 10° 03:36:54 10° 323° (NW) 2,271 6.5 -21.4°
Sets 03:39:27 0° 335° (NNW) 3,166 7.7 -21.5°
